Hourly Data Report for October 26, 2019

SAINT JOHN A
NEW BRUNSWICK
Current Station Operator: NAVCAN

45°18'58.000" N
65°53'24.000" W
108.80 m
8104901
71609
YSJ

Download Data

Hourly Data (October 2019)
Hourly Data Report for October 26, 2019
TIME
LST
Temp Definition
°C
Dew Point Definition
°C
Rel Hum Definition
%
Precip. Amount Definition
mm

Wind Dir Definition
10's deg

Wind Spd Definition
km/h
Visibility Definition
km
Stn Press Definition
kPa
Hmdx Definition


Wind Chill Definition


Weather Definition


00:00 5.1 4.0 93   36 2 24.1 100.84     LegendNANA
01:00 5.2 4.0 93   36 3 24.1 100.82     LegendNANA
02:00 4.5 3.6 94   5 4 24.1 100.73     Cloudy
03:00 4.7 3.6 93   36 2 24.1 100.70     LegendNANA
04:00 5.9 2.8 80   36 10 24.1 100.69     LegendNANA
05:00 5.4 2.6 82   34 16 24.1 100.72     Rain
06:00 4.6 2.5 86   34 17 24.1 100.75     Rain
07:00 4.3 2.9 91   36 3 24.1 100.65     Rain
08:00 4.5 2.9 89   27 6 24.1 100.70     Cloudy
09:00 5.5 3.0 84   28 10 24.1 100.72     LegendNANA
10:00 7.3 2.3 70   30 16 24.1 100.77     LegendNANA
11:00 8.8 -1.2 50   32 25 24.1 100.79     Clear
12:00 10.0 -3.6 38   31 19 24.1 100.71     LegendNANA
13:00 10.6 -5.1 33   31 30 24.1 100.65     LegendNANA
14:00 10.8 -5.0 33   31 30 24.1 100.66     Clear
15:00 10.7 -4.2 35   33 32 24.1 100.71     LegendNANA
16:00 10.2 -3.7 37   31 28 24.1 100.74     LegendNANA
17:00 8.8 -2.7 44   33 20 24.1 100.83     Clear
18:00 6.9 -1.9 53   31 10 24.1 100.95     LegendNANA
19:00 4.5 -1.3 66   31 11 24.1 101.02     LegendNANA
20:00 4.4 -1.2 67   31 8 24.1 101.11     Mainly Clear
21:00 4.4 -1.3 66   35 14 24.1 101.11     LegendNANA
22:00 0.9 -1.6 83   20 5 24.1 101.18     LegendNANA
23:00 -0.2 -1.9 88   1 7 24.1 101.20   -3 Clear

Notes on Data Quality.

Legend

  • E = Estimated
  • M = Missing
  • NA = Not Available*
  • [empty] = Indicates an unobserved value
Date modified: